• în România
  • Lista ţărilor
  • Pe 7 zile
  • Temperatura apei
  • Hartă satelitară
  • Meteo pe hartă
  • Widget-uri
  • user-avatar
    Intrare

    Meteo pe oră la Buar

    Astăzi, 15 Decembrie, Vineri

    Timp Temperatura Precipitaţii Vânt Presiune Umiditate
    00:00 +25°C° 0 mm 1 m/s 694 mmHg 28%
    01:00 +25°C° 0 mm 1 m/s 694 mmHg 29%
    02:00 +24°C° 0 mm 1 m/s 694 mmHg 29%
    03:00 +24°C° 0 mm 1 m/s 694 mmHg 30%
    04:00 +24°C° 0 mm 1 m/s 694 mmHg 30%
    05:00 +24°C° 0 mm 1 m/s 694 mmHg 31%
    06:00 +24°C° 0 mm 1 m/s 694 mmHg 32%
    07:00 +24°C° 0 mm 1 m/s 695 mmHg 33%
    08:00 +27°C° 0 mm 1 m/s 695 mmHg 29%
    09:00 +31°C° 0 mm 1 m/s 696 mmHg 24%
    10:00 +34°C° 0 mm 1 m/s 696 mmHg 20%
    11:00 +36°C° 0 mm 2 m/s 696 mmHg 19%
    12:00 +37°C° 0 mm 2 m/s 695 mmHg 17%
    13:00 +38°C° 0 mm 2 m/s 695 mmHg 15%
    14:00 +38°C° 0 mm 2 m/s 694 mmHg 15%
    15:00 +38°C° 0 mm 2 m/s 694 mmHg 15%
    16:00 +38°C° 0 mm 2 m/s 693 mmHg 14%
    17:00 +35°C° 0 mm 2 m/s 693 mmHg 17%
    18:00 +32°C° 0 mm 1 m/s 693 mmHg 20%
    19:00 +29°C° 0 mm 1 m/s 693 mmHg 23%
    20:00 +28°C° 0 mm 1 m/s 693 mmHg 24%
    21:00 +27°C° 0 mm 1 m/s 694 mmHg 26%
    22:00 +26°C° 0 mm 1 m/s 694 mmHg 27%
    23:00 +26°C° 0 mm 1 m/s 694 mmHg 27%

    Mâine, 16 Decembrie, Sâmbătă

    Timp Temperatura Precipitaţii Vânt Presiune Umiditate
    00:00 +25°C° 0 mm 1 m/s 694 mmHg 28%
    01:00 +25°C° 0 mm 1 m/s 693 mmHg 29%
    02:00 +24°C° 0 mm 1 m/s 693 mmHg 29%
    03:00 +24°C° 0 mm 1 m/s 693 mmHg 30%
    04:00 +23°C° 0 mm 1 m/s 693 mmHg 30%
    05:00 +24°C° 0 mm 1 m/s 693 mmHg 30%
    06:00 +24°C° 0 mm 1 m/s 694 mmHg 30%
    07:00 +25°C° 0 mm 1 m/s 694 mmHg 30%
    08:00 +28°C° 0 mm 1 m/s 695 mmHg 25%
    09:00 +32°C° 0 mm 2 m/s 696 mmHg 19%
    10:00 +37°C° 0 mm 2 m/s 696 mmHg 14%
    11:00 +38°C° 0 mm 2 m/s 696 mmHg 13%
    12:00 +39°C° 0 mm 2 m/s 695 mmHg 12%
    13:00 +40°C° 0 mm 3 m/s 694 mmHg 11%
    14:00 +40°C° 0 mm 3 m/s 693 mmHg 11%
    15:00 +39°C° 0 mm 3 m/s 693 mmHg 12%
    16:00 +39°C° 0 mm 3 m/s 692 mmHg 12%
    17:00 +36°C° 0 mm 2 m/s 692 mmHg 14%
    18:00 +34°C° 0 mm 2 m/s 692 mmHg 17%
    19:00 +30°C° 0 mm 2 m/s 693 mmHg 20%
    20:00 +29°C° 0 mm 2 m/s 693 mmHg 20%
    21:00 +28°C° 0 mm 2 m/s 693 mmHg 21%
    22:00 +27°C° 0 mm 2 m/s 694 mmHg 22%
    23:00 +27°C° 0 mm 2 m/s 694 mmHg 23%

    Poimâine, 17 Decembrie, Duminică

    Timp Temperatura Precipitaţii Vânt Presiune Umiditate
    00:00 +26°C° 0 mm 2 m/s 693 mmHg 24%
    01:00 +26°C° 0 mm 1 m/s 693 mmHg 24%
    02:00 +25°C° 0 mm 1 m/s 693 mmHg 25%
    03:00 +24°C° 0 mm 1 m/s 693 mmHg 26%
    04:00 +24°C° 0 mm 1 m/s 692 mmHg 27%
    05:00 +24°C° 0 mm 1 m/s 693 mmHg 28%
    06:00 +24°C° 0 mm 1 m/s 693 mmHg 29%
    07:00 +24°C° 0 mm 1 m/s 694 mmHg 29%
    08:00 +28°C° 0 mm 1 m/s 695 mmHg 24%
    09:00 +32°C° 0 mm 1 m/s 696 mmHg 19%
    10:00 +35°C° 0 mm 1 m/s 697 mmHg 14%
    11:00 +37°C° 0 mm 2 m/s 696 mmHg 13%
    12:00 +38°C° 0 mm 2 m/s 695 mmHg 12%
    13:00 +39°C° 0 mm 2 m/s 694 mmHg 11%
    14:00 +39°C° 0 mm 2 m/s 693 mmHg 11%
    15:00 +39°C° 0 mm 2 m/s 693 mmHg 11%
    16:00 +38°C° 0 mm 2 m/s 692 mmHg 11%
    17:00 +36°C° 0 mm 2 m/s 692 mmHg 14%
    18:00 +32°C° 0 mm 2 m/s 692 mmHg 16%
    19:00 +30°C° 0 mm 1 m/s 693 mmHg 19%
    20:00 +29°C° 0 mm 1 m/s 693 mmHg 20%
    21:00 +28°C° 0 mm 1 m/s 693 mmHg 21%
    22:00 +27°C° 0 mm 1 m/s 694 mmHg 22%
    23:00 +26°C° 0 mm 1 m/s 694 mmHg 22%

    18 Decembrie, Luni

    Timp Temperatura Precipitaţii Vânt Presiune Umiditate
    00:00 +26°C° 0 mm 1 m/s 693 mmHg 23%
    01:00 +25°C° 0 mm 1 m/s 693 mmHg 24%
    02:00 +25°C° 0 mm 1 m/s 693 mmHg 26%
    03:00 +24°C° 0 mm 1 m/s 693 mmHg 28%
    04:00 +23°C° 0 mm 1 m/s 693 mmHg 30%
    05:00 +24°C° 0 mm 1 m/s 694 mmHg 31%
    06:00 +24°C° 0 mm 1 m/s 694 mmHg 33%
    07:00 +24°C° 0 mm 1 m/s 695 mmHg 34%
    08:00 +28°C° 0 mm 1 m/s 695 mmHg 29%
    09:00 +31°C° 0 mm 1 m/s 696 mmHg 24%
    10:00 +34°C° 0 mm 1 m/s 697 mmHg 19%
    11:00 +35°C° 0 mm 1 m/s 696 mmHg 17%
    12:00 +37°C° 0 mm 2 m/s 695 mmHg 14%
    13:00 +38°C° 0 mm 2 m/s 694 mmHg 12%
    14:00 +38°C° 0 mm 2 m/s 693 mmHg 12%
    15:00 +38°C° 0 mm 2 m/s 693 mmHg 11%
    16:00 +38°C° 0 mm 2 m/s 692 mmHg 11%
    17:00 +35°C° 0 mm 2 m/s 692 mmHg 13%
    18:00 +31°C° 0 mm 2 m/s 692 mmHg 15%
    19:00 +29°C° 0 mm 1 m/s 693 mmHg 18%
    20:00 +28°C° 0 mm 1 m/s 693 mmHg 18%
    21:00 +27°C° 0 mm 1 m/s 693 mmHg 19%
    22:00 +26°C° 0 mm 1 m/s 694 mmHg 20%
    23:00 +26°C° 0 mm 1 m/s 693 mmHg 20%

    19 Decembrie, Marţi

    Timp Temperatura Precipitaţii Vânt Presiune Umiditate
    00:00 +25°C° 0 mm 1 m/s 693 mmHg 21%
    01:00 +25°C° 0 mm 1 m/s 693 mmHg 21%
    02:00 +24°C° 0 mm 1 m/s 693 mmHg 22%
    03:00 +24°C° 0 mm 1 m/s 693 mmHg 23%
    04:00 +23°C° 0 mm 1 m/s 693 mmHg 25%
    05:00 +23°C° 0 mm 1 m/s 693 mmHg 27%
    06:00 +23°C° 0 mm 1 m/s 694 mmHg 30%
    07:00 +24°C° 0 mm 1 m/s 694 mmHg 32%
    08:00 +27°C° 0 mm 1 m/s 695 mmHg 29%
    09:00 +31°C° 0 mm 1 m/s 695 mmHg 25%
    10:00 +34°C° 0 mm 1 m/s 696 mmHg 22%
    11:00 +36°C° 0 mm 1 m/s 695 mmHg 18%
    12:00 +37°C° 0 mm 1 m/s 695 mmHg 15%
    13:00 +40°C° 0 mm 2 m/s 694 mmHg 11%
    14:00 +39°C° 0 mm 2 m/s 693 mmHg 11%
    15:00 +39°C° 0 mm 2 m/s 693 mmHg 11%
    16:00 +38°C° 0 mm 2 m/s 692 mmHg 10%
    17:00 +36°C° 0 mm 2 m/s 692 mmHg 13%
    18:00 +32°C° 0 mm 1 m/s 692 mmHg 15%
    19:00 +29°C° 0 mm 1 m/s 693 mmHg 17%
    20:00 +28°C° 0 mm 1 m/s 693 mmHg 18%
    21:00 +27°C° 0 mm 1 m/s 693 mmHg 19%
    22:00 +27°C° 0 mm 1 m/s 693 mmHg 20%
    23:00 +26°C° 0 mm 1 m/s 693 mmHg 21%

    20 Decembrie, Miercuri

    Timp Temperatura Precipitaţii Vânt Presiune Umiditate
    00:00 +25°C° 0 mm 1 m/s 693 mmHg 22%
    01:00 +24°C° 0 mm 1 m/s 693 mmHg 22%
    02:00 +24°C° 0 mm 1 m/s 693 mmHg 24%
    03:00 +23°C° 0 mm 1 m/s 693 mmHg 25%
    04:00 +23°C° 0 mm 1 m/s 693 mmHg 27%
    05:00 +23°C° 0 mm 1 m/s 693 mmHg 28%
    06:00 +23°C° 0 mm 1 m/s 694 mmHg 30%
    07:00 +24°C° 0 mm 1 m/s 694 mmHg 32%
    08:00 +27°C° 0 mm 1 m/s 695 mmHg 28%
    09:00 +31°C° 0 mm 1 m/s 696 mmHg 23%
    10:00 +35°C° 0 mm 1 m/s 696 mmHg 19%
    11:00 +36°C° 0 mm 1 m/s 696 mmHg 16%
    12:00 +38°C° 0 mm 2 m/s 695 mmHg 13%
    13:00 +39°C° 0 mm 2 m/s 694 mmHg 10%
    14:00 +39°C° 0 mm 2 m/s 694 mmHg 10%
    15:00 +39°C° 0 mm 3 m/s 693 mmHg 10%
    16:00 +38°C° 0 mm 3 m/s 693 mmHg 10%
    17:00 +36°C° 0 mm 2 m/s 693 mmHg 12%
    18:00 +32°C° 0 mm 2 m/s 693 mmHg 14%
    19:00 +30°C° 0 mm 1 m/s 693 mmHg 16%
    20:00 +29°C° 0 mm 1 m/s 693 mmHg 18%
    21:00 +28°C° 0 mm 1 m/s 693 mmHg 20%
    22:00 +26°C° 0 mm 1 m/s 693 mmHg 21%
    23:00 +26°C° 0 mm 1 m/s 693 mmHg 23%
    Arată mai mult